Regional Weather Roundup
Issued by NWS

Home | Current Version | Previous Version | Graphics & Text | Print | Product List | Glossary On
Versions: 1 2 3 4 5 6 7 8 9 10 11 12 13 14 15 16 17 18 19 20 21 22 23 24 25 26 27 28 29 30 31 32 33 34 35 36 37 38 39 40 41 42 43 44 45 46 47 48 49 50
000
ASUS45 KTFX 280904
RWRMT
MONTANA HOURLY WEATHER ROUNDUP
NATIONAL WEATHER SERVICE GREAT FALLS MT
304 AM MDT MON JUL 28 2014

NOTE: "FAIR" INDICATES FEW OR NO CLOUDS BELOW 12000 FEET WITH NO
SIGNIFICANT WEATHER AND/OR OBSTRUCTIONS TO VISIBILITY.

* THESE STATIONS ARE NOT UNDER NWS QUALITY CONTROL. THEY DO NOT
   REPORT WEATHER SUCH AS PRECIPITATION OR FOG.

MTZ001>007-043-281000-
WEST OF THE DIVIDE
CITY           SKY/WX    TMP DP  RH WIND       PRES   REMARKS
KALISPELL      MOCLDY    54  46  74 SW7       30.16S
MISSOULA       CLEAR     61  43  52 CALM      30.19S
BUTTE          CLEAR     52  32  47 VRB5      30.33S
MULLAN PASS    CLOUDY    66  36  33 SE9       30.33S
* ESSEX        N/A       58  42  55 S12        N/A
* LINCOLN      N/A       49  42  77 N/A        N/A
* LOOKOUT PASS N/A       62  44  52 S2         N/A
* POLSON       N/A       62  45  54 SE1        N/A
* RONAN APT    PTCLDY    55  48  77 N/A        N/A
* SEELEY LAKE  N/A       46  38  74 NE1        N/A
* THOMP F APT  CLOUDY    69  29  22 N5         N/A
* YAAK HILL    N/A       59  46  62 N/A        N/A
$$

MTZ008-052>055-281000-
SOUTHWEST MONTANA
CITY           SKY/WX    TMP DP  RH WIND       PRES   REMARKS
BOZEMAN        CLEAR     59  41  51 SW3       30.26R
DILLON         MOCLDY    59  34  39 S6        30.27F
W YELLOWSTONE  CLEAR     41  36  82 CALM      30.41S
* THREE FORKS  PTCLDY    54  52  93 N/A        N/A
* BOULDER HILL N/A       62  33  34 S2G8       N/A
* RAYNOLDS PAS N/A       53  35  51 SE2        N/A
* WHITEHALL    N/A       62  33  34 N6G11      N/A
* WISE RIVER   N/A       54  31  42 SW4        N/A
$$

MTZ009>010-012-014-046-048-049-054-281000-
EAST SLOPES AND CENTRAL MONTANA
CITY           SKY/WX    TMP DP  RH WIND       PRES   REMARKS
CUT BANK       PTCLDY    55  43  64 E7        30.25F
GREAT FALLS    CLEAR     59  41  51 SE5       30.21S
HELENA         CLEAR     63  37  38 NW3       30.25R
* CONRAD       CLEAR     46  46 100 N/A        N/A
* DEARBORN     N/A       61  38  43 S2         N/A
* EAST GLACIER N/A       51  40  66 VRB8       N/A
* ROGERS PASS  N/A       59  34  39 NW3        N/A
* SAINT MARY   N/A       43  40  89 SE3        N/A
* SWEET GRASS  N/A       65  41  42 S16        N/A
$$

MTZ011-013-016-021-035-040-045-047-050-051-281000-
NORTH CENTRAL MONTANA
CITY           SKY/WX    TMP DP  RH WIND       PRES   REMARKS
HAVRE          CLEAR     64  45  50 E7        30.21F
LEWISTOWN      CLEAR     64  43  47 E15       30.28F
* CHESTER      N/A       67  42  40 SE7        N/A
* DENTON       N/A       65  40  40 SE12       N/A
* JUDITH GAP   N/A       61  39  44 SE6G12     N/A
* LOMA         N/A       69  43  39 E19G24     N/A
$$

MTZ017>020-022>027-061-062-281000-
NORTHEAST MONTANA
CITY           SKY/WX    TMP DP  RH WIND       PRES   REMARKS
GLASGOW        CLEAR     57  52  83 E10       30.26S
GLENDIVE       CLEAR     57  50  78 S6        30.33S
JORDAN         CLEAR     52  41  66 CALM      30.28S
SIDNEY         CLEAR     55  50  83 CALM      30.32S
WOLF POINT     CLEAR     54  48  80 E5        30.29S
* BEAVER HILL  N/A       55  51  86 SE11       N/A
* CIRCLE       N/A       58  52  81 N/A        N/A
* LINDSAY DVD  N/A       54  50  86 E4         N/A
* NAVAJO       N/A       53  51  93 S5         N/A
$$

MTZ028>042-056>058-281000-
SOUTHCENTRAL AND SOUTHEAST MONTANA
CITY           SKY/WX    TMP DP  RH WIND       PRES   REMARKS
BAKER          CLEAR     54  52  93 E7        30.33S
BILLINGS       CLEAR     63  43  48 N7        30.25F
LIVINGSTON     CLEAR     61  39  44 VRB3      30.30S
MILES CITY     CLEAR     63  54  73 S10       30.28S
* LAUREL APT   CLEAR     64  37  37 N8         N/A
* ROUNDUP APT  CLEAR     61  39  44 N/A        N/A
* ALZADA       N/A       56  52  87 SE4        N/A
* HYSHAM       N/A       65  41  42 NE6        N/A
* LAME DEER    N/A       61  46  58 SE11       N/A
* REED POINT   N/A       53  46  77 SE1        N/A
* ROSCOE HILL  N/A       60  36  41 S4         N/A
$$

REGIONAL REPORTS...DAKOTAS
CITY           SKY/WX    TMP DP  RH WIND       PRES   REMARKS
WILLISTON      CLEAR     52  48  86 CALM      30.32R
DICKINSON      CLEAR     50  46  86 S7        30.32F
CROSBY         MOCLDY    55  55 100 CALM      30.31S
TIOGA          CLOUDY    50  50 100 CALM      30.34F
WATFORD CITY   CLEAR     50  50 100 CALM      30.30S
BISMARCK       CLEAR     48  46  93 W3        30.33R
GRAND FORKS    CLOUDY    61  55  81 NW5        N/A
FARGO          CLOUDY    61  55  81 NW7       30.23R
BUFFALO SD     CLEAR     54  50  86 SE8       30.29S
RAPID CITY     CLEAR     54  48  80 CALM      30.37R
$$

REGIONAL REPORTS...WYOMING/IDAHO/WASHINGTON
CITY           SKY/WX    TMP DP  RH WIND       PRES   REMARKS
GILLETTE       CLEAR     54  45  72 CALM      30.36R
SHERIDAN       CLEAR     57  45  64 SE3       30.29S
YELLOWSTONE LA CLEAR     43  34  71 NW3       30.51F
MULLAN PASS    CLOUDY    66  36  33 SE9       30.33S
SAND POINT     MOCLDY    55  50  83 CALM      30.13R
SPOKANE        CLOUDY    73  43  34 NE6       30.09F

$$



USA.gov is the U.S. government's official web portal to all federal, state and local government web resources and services.